TimeMDT,TemperatureF,Dew PointF,Humidity,Sea Level PressureIn,VisibilityMPH,Wind Direction,Wind SpeedMPH,Gust SpeedMPH,PrecipitationIn,Events,Conditions,WindDirDegrees,DateUTC
12:52 AM,18.0,14.0,84,30.12,10.0,Calm,Calm,-,N/A,,Clear,0,2013-03-27 06:52:00
1:52 AM,18.0,15.1,88,30.10,10.0,ENE,4.6,-,N/A,,Clear,60,2013-03-27 07:52:00
2:52 AM,16.0,12.9,88,30.11,10.0,Calm,Calm,-,N/A,,Clear,0,2013-03-27 08:52:00
3:52 AM,17.1,12.9,84,30.10,10.0,Calm,Calm,-,N/A,,Clear,0,2013-03-27 09:52:00
4:52 AM,12.0,8.1,84,30.12,10.0,Calm,Calm,-,N/A,,Clear,0,2013-03-27 10:52:00
5:52 AM,14.0,10.0,84,30.12,10.0,Calm,Calm,-,N/A,,Clear,0,2013-03-27 11:52:00
6:52 AM,15.1,10.9,84,30.16,10.0,Calm,Calm,-,N/A,,Clear,0,2013-03-27 12:52:00
7:52 AM,21.0,17.1,85,30.18,10.0,Calm,Calm,-,N/A,,Clear,0,2013-03-27 13:52:00
8:52 AM,28.9,24.1,82,30.19,10.0,Calm,Calm,-,N/A,,Clear,0,2013-03-27 14:52:00
9:52 AM,37.9,25.0,60,30.17,10.0,WNW,3.5,-,N/A,,Clear,290,2013-03-27 15:52:00
10:52 AM,44.1,21.0,40,30.17,10.0,Calm,Calm,-,N/A,,Clear,0,2013-03-27 16:52:00
11:52 AM,50.0,16.0,26,30.15,10.0,WNW,4.6,-,N/A,,Clear,290,2013-03-27 17:52:00
12:52 PM,53.1,14.0,21,30.14,10.0,Variable,4.6,-,N/A,,Clear,0,2013-03-27 18:52:00
1:52 PM,55.9,12.0,18,30.12,10.0,Variable,4.6,-,N/A,,Clear,0,2013-03-27 19:52:00
2:52 PM,55.9,12.0,18,30.10,10.0,East,5.8,-,N/A,,Clear,100,2013-03-27 20:52:00
3:52 PM,55.9,10.9,17,30.09,10.0,Variable,4.6,-,N/A,,Clear,0,2013-03-27 21:52:00
4:52 PM,57.0,10.0,15,30.09,10.0,Calm,Calm,-,N/A,,Clear,0,2013-03-27 22:52:00
5:52 PM,57.0,10.0,15,30.09,10.0,Calm,Calm,-,N/A,,Clear,0,2013-03-27 23:52:00
6:52 PM,48.9,14.0,25,30.11,10.0,ESE,8.1,-,N/A,,Clear,110,2013-03-28 00:52:00
7:52 PM,37.9,19.9,48,30.12,10.0,East,6.9,-,N/A,,Clear,80,2013-03-28 01:52:00
8:52 PM,37.0,19.0,48,30.13,10.0,ENE,8.1,-,N/A,,Clear,70,2013-03-28 02:52:00
9:52 PM,37.9,19.0,47,30.12,10.0,Calm,Calm,-,N/A,,Partly Cloudy,0,2013-03-28 03:52:00
10:52 PM,42.1,17.1,37,30.10,10.0,SSE,8.1,-,N/A,,Partly Cloudy,150,2013-03-28 04:52:00
11:52 PM,44.1,21.9,42,30.06,10.0,SSE,10.4,18.4,N/A,,Partly Cloudy,160,2013-03-28 05:52:00